Simultaneous Nadir Overpasses (SNOs) Predictions

Prediction of SNOs between GOES-14 and NPP Satellite Orbit:

Table of predicted SNOs for the next 14.0 days since TLE Epoch: 3/18/2022
Index Date Time (GOES-14) GOES-14 Lat,Lon NPP Lat,Lon Distance(km) Time Diff (sec)
1 03/19/2022 08:30:23 0.10,-104.56 0.53,-106.54 224.77 80
2 03/20/2022 08:14:19 0.10,-104.57 -0.50,-102.01 292.44 80
3 03/21/2022 20:36:14 -0.10,-104.45 -0.74,-107.30 324.95 80
4 03/22/2022 20:14:50 -0.11,-104.44 0.29,-102.77 190.28 80
5 03/24/2022 08:36:37 0.11,-104.54 0.91,-108.04 399.30 80
6 03/25/2022 08:20:32 0.11,-104.54 -0.11,-103.51 117.52 80
7 03/26/2022 20:42:29 -0.11,-104.45 -1.06,-108.81 497.30 80
8 03/27/2022 20:21:03 -0.12,-104.43 -0.09,-104.27 17.88 80
9 03/30/2022 08:24:06 0.12,-104.52 0.26,-105.01 57.22 80
10 03/31/2022 08:08:02 0.12,-104.52 -0.77,-100.48 460.24 80
11 04/01/2022 20:29:58 -0.12,-104.45 -0.39,-105.79 152.36 80
